Location: Novokuznetsk
(53.7500°N, 87.1000°E)
Time: 04:47:03
(UTC+06:00)

ISS - Pass Details

Date: 14 July 2018
Orbit: 402 x 408 km, 51.6° (Epoch: 16 July)

Event Time Altitude Azimuth Distance (km) Brightness Sun altitude
Exits shadow 02:02:28 14° 240° (WSW) 1,268 -1.8 -11.2°
Maximum altitude 02:05:09 49° 167° (SSE) 535 -3.6 -11.0°
Drops below altitude 10° 02:08:21 10° 91° (E) 1,472 -0.7 -10.8°
Sets 02:10:28 0° 86° (E) 2,335 0.5 -10.7°
